GEFSCGP_con_maxscp_222.txt.gz
SCP
0 0 0 0 0 0 0 0 0 0 0 1 1 2 2 2 3 3 3 2 2 2 3 4 4 5 6 6 6 5 4 3 3 2 2 2 2 1 1 1 1 1 1 1
0 0 0 0 0 0 0 0 0 0 1 1 2 2 2 2 2 3 3 3 3 4 5 5 5 6 7 7 7 6 5 4 3 2 2 2 2 1 1 1 1 1 1 1
0 0 0 0 0 0 0 0 0 1 1 1 2 2 2 2 2 3 3 3 4 5 5 5 6 8 9 10 9 7 6 5 4 3 3 2 2 1 1 1 1 1 1 1
0 0 0 0 0 0 0 0 0 0 1 1 2 2 1 1 2 3 3 3 3 4 4 5 6 9 10 10 9 9 8 6 5 4 3 2 2 1 1 1 1 1 1 1
0 0 0 0 0 0 0 0 0 0 1 1 1 1 1 1 2 2 3 3 3 3 3 4 6 8 9 10 10 10 9 7 6 5 3 2 2 1 1 1 1 1 1 2
0 0 0 0 0 0 0 0 0 0 0 0 0 0 1 1 2 2 2 3 3 3 3 4 5 7 8 10 10 11 10 8 6 5 3 2 2 1 1 1 1 1 2 2
0 0 0 0 0 0 0 0 0 0 0 0 0 0 0 0 1 2 2 2 3 3 3 4 5 6 7 9 10 11 10 8 6 5 4 3 2 2 2 2 2 2 2 2
0 0 0 0 0 0 0 0 0 0 0 0 0 0 0 0 1 1 2 2 3 3 4 4 4 5 7 9 10 11 10 8 6 5 5 4 3 2 2 2 2 2 2 2
0 0 0 0 0 0 0 0 0 0 0 0 0 0 0 1 3 4 4 4 5 5 6 6 5 5 7 9 12 13 12 10 8 7 6 5 4 3 2 2 2 2 2 2
0 0 0 0 0 0 0 0 0 0 0 0 0 1 1 4 8 9 9 8 8 8 8 7 6 5 6 9 12 14 13 12 10 9 7 6 4 3 2 2 1 1 1 1
0 0 0 0 0 0 0 0 0 0 0 0 0 1 2 5 9 12 12 12 10 8 7 6 5 5 5 7 10 11 12 11 10 8 7 6 5 4 3 2 2 1 2 2
0 0 0 0 0 0 0 0 0 0 0 0 0 1 2 4 7 10 12 11 9 8 7 5 5 4 5 6 7 7 8 8 8 6 5 5 4 4 3 2 2 2 2 2
0 0 0 0 0 0 0 0 0 0 0 0 0 1 1 3 5 9 10 10 9 8 7 6 5 4 4 5 4 4 5 6 6 5 4 4 3 3 2 2 2 2 2 2
0 0 0 0 0 0 0 0 0 0 0 0 0 1 1 3 5 8 10 9 8 8 8 7 6 5 4 4 4 4 5 6 5 4 4 4 3 2 2 2 2 2 2 2
0 0 0 0 0 0 0 0 0 0 0 1 1 2 2 3 5 6 7 7 7 8 10 10 8 7 6 5 5 4 4 5 5 4 4 3 3 3 3 3 3 2 2 2
0 0 0 0 0 0 0 0 0 1 1 2 3 3 3 4 5 5 5 6 7 9 10 10 8 7 6 5 5 5 5 5 4 4 3 3 3 3 3 3 3 2 2 2
0 0 0 0 0 0 1 1 1 1 2 3 3 3 4 5 6 5 5 5 7 8 8 7 6 6 5 4 5 6 6 6 5 4 3 3 3 4 3 3 3 3 2 2
0 0 0 0 0 0 1 1 2 2 3 3 3 4 5 7 7 6 5 5 6 6 6 5 5 5 5 5 7 8 8 6 5 4 3 3 3 4 4 4 3 3 3 3
0 0 0 0 0 1 1 2 2 3 3 3 3 4 6 8 8 6 6 6 6 6 6 6 6 5 6 7 9 10 8 6 5 3 3 2 3 4 4 4 4 3 3 3
0 0 0 0 1 1 2 3 2 2 3 2 3 4 7 8 8 8 8 8 8 8 8 8 7 7 8 10 11 10 8 6 4 3 2 2 3 4 4 4 4 3 3 3
1 0 0 0 1 2 3 3 3 2 2 2 3 5 7 8 10 12 13 12 10 8 7 7 8 9 10 11 11 9 6 5 3 3 2 2 3 3 4 3 3 3 3 3
1 1 0 0 1 2 3 3 2 2 2 3 4 6 9 11 13 14 14 12 10 8 6 6 7 9 10 10 8 6 5 4 4 3 2 3 3 3 3 3 2 2 2 2
1 1 1 1 2 2 3 3 3 3 4 6 8 9 10 11 11 11 11 10 9 8 7 6 7 9 9 8 6 5 5 5 4 3 3 3 3 3 3 2 2 2 2 1
1 1 2 3 3 3 3 3 3 4 7 9 10 9 9 8 8 7 8 8 8 8 8 7 7 8 9 8 6 5 5 5 5 4 3 3 3 3 2 2 2 2 1 1
1 2 3 4 3 3 3 3 4 6 9 10 8 7 7 6 6 6 8 9 9 9 8 7 7 7 7 6 5 4 4 5 5 4 4 4 3 3 2 2 1 1 1 1
1 2 3 4 3 3 3 3 4 8 10 9 7 6 6 6 6 7 9 10 10 9 8 7 7 6 5 5 4 4 4 4 5 5 5 4 3 3 2 1 1 1 1 1

GEFSCGP_con_maxscp_228.txt.gz
SCP
0 0 0 0 0 0 0 0 0 0 0 0 0 0 1 1 1 1 1 1 1 1 2 3 3 2 2 2 2 2 2 2 1 1 1 1 1 1 1 1 1 1 1 0
0 0 0 0 0 0 0 0 0 1 1 1 0 0 1 1 1 1 1 1 1 1 2 3 3 2 2 2 2 3 3 2 2 1 1 1 1 1 1 1 1 1 1 0
0 0 0 0 0 0 0 0 0 1 1 1 0 0 0 1 1 1 1 1 1 1 1 2 2 2 2 2 2 4 4 3 2 2 2 1 1 1 1 1 1 1 0 0
0 0 0 0 0 0 0 0 0 0 1 1 1 0 0 0 0 1 1 1 1 1 1 1 1 1 1 2 3 4 4 4 3 2 2 2 2 1 1 1 1 1 1 1
0 0 0 0 0 0 0 0 0 0 0 0 0 0 0 0 0 1 1 1 1 1 1 1 1 1 1 2 3 3 4 4 3 2 2 2 2 1 1 1 1 1 1 1
0 0 0 0 0 0 0 0 0 0 0 0 0 0 0 0 0 1 1 1 1 1 1 1 1 1 1 2 2 3 4 4 3 3 2 2 2 1 1 1 1 1 1 1
0 0 0 0 0 0 0 0 0 0 0 0 0 0 0 0 0 1 1 1 1 1 1 2 2 2 2 2 2 3 4 4 4 3 3 3 2 2 2 1 1 1 1 1
0 0 0 0 0 0 0 0 0 0 0 0 0 0 0 0 0 1 1 1 1 2 2 2 3 3 2 2 2 3 4 4 4 4 3 3 3 3 2 2 1 1 1 1
0 0 0 0 0 0 0 0 0 0 0 0 0 1 1 1 1 1 1 1 1 2 3 4 4 3 3 2 3 3 4 4 4 4 4 3 3 3 3 2 2 2 1 1
0 0 0 0 0 0 0 0 0 0 0 0 0 1 2 2 2 2 1 1 2 3 4 5 4 4 4 3 3 3 4 4 4 4 4 4 4 4 3 3 3 2 2 2
0 0 0 0 0 0 0 0 0 0 0 0 0 1 2 2 2 2 2 2 3 4 4 4 5 5 4 3 3 3 3 3 3 3 3 4 4 4 3 2 3 3 2 2
0 0 0 0 0 0 0 0 0 0 0 0 0 1 1 1 1 1 2 2 3 3 4 4 4 4 4 4 4 3 3 3 3 3 4 5 5 4 3 2 2 2 2 2
0 0 0 0 0 0 0 0 0 0 0 0 0 0 1 1 1 2 2 2 3 3 4 4 4 4 4 4 4 3 3 3 4 4 5 6 6 4 3 2 1 1 1 2
0 0 0 0 0 0 0 0 0 0 0 0 0 0 1 1 1 2 2 3 3 4 4 4 4 4 4 5 4 3 3 3 3 4 4 5 5 4 2 1 1 1 1 2
0 0 0 0 0 0 0 0 0 0 0 0 0 1 1 1 1 2 2 3 4 5 5 5 4 4 4 4 4 3 3 3 3 3 3 3 3 3 2 1 1 1 1 1
0 0 0 0 0 0 0 0 0 0 0 0 0 1 1 1 2 2 2 3 5 6 6 5 4 3 3 4 4 4 4 4 3 3 3 2 2 2 2 2 1 1 1 1
0 0 0 0 0 0 0 0 0 0 0 0 1 1 1 2 2 2 2 3 6 7 5 4 3 3 3 3 4 5 5 4 4 3 3 2 2 2 2 2 1 1 1 2
0 0 0 0 0 0 0 1 1 1 0 1 1 1 2 2 3 3 3 4 5 5 4 3 2 2 2 3 4 5 5 5 4 3 3 2 2 2 2 2 1 1 2 2
0 0 0 0 0 0 1 1 1 1 1 1 1 2 2 2 3 3 3 3 4 4 3 2 2 3 3 3 3 4 5 5 4 4 3 2 2 2 2 2 1 1 2 2
0 0 0 0 0 0 1 1 1 1 1 1 1 2 3 3 2 3 3 4 4 5 4 4 3 3 3 3 3 4 5 5 5 5 4 3 2 2 2 2 1 2 2 3
0 0 0 0 0 0 1 1 1 1 1 1 2 3 4 3 2 3 4 5 7 8 7 6 4 3 3 3 3 4 4 5 5 6 5 4 3 2 2 2 2 2 3 4
0 0 0 0 0 0 0 1 1 1 1 1 2 3 4 3 3 4 5 6 8 9 9 7 5 4 3 4 4 4 4 5 6 6 4 3 3 2 2 2 3 4 4 5
0 0 0 0 0 0 0 1 1 1 1 2 2 3 3 4 4 5 5 5 6 7 7 6 5 5 5 4 5 5 5 5 5 5 4 3 3 3 3 3 3 4 4 4
0 0 0 1 1 1 1 1 1 1 1 2 2 3 3 4 4 5 5 4 4 4 5 5 5 6 6 6 5 5 5 4 4 4 4 4 3 3 3 3 3 4 3 3
1 1 1 1 1 2 2 1 1 1 2 2 3 4 4 5 5 5 5 4 3 3 3 4 5 6 6 7 6 6 5 4 4 3 3 3 3 3 3 3 3 2 2 2
1 1 1 1 2 2 2 2 1 2 2 3 4 6 5 5 5 5 5 4 3 2 3 4 5 5 5 6 7 6 5 4 3 3 3 3 3 3 3 3 2 1 1 1

GEFSCGP_con_maxscp_234.txt.gz
SCP
0 0 0 0 0 0 0 0 0 0 0 0 0 0 0 1 1 1 1 1 1 1 1 1 1 1 1 1 1 2 2 3 4 4 4 3 3 3 2 2 2 2 2 1
0 0 0 0 0 0 0 0 0 0 0 0 0 0 0 1 1 1 1 1 1 1 1 1 1 1 1 1 1 2 3 4 4 5 4 4 4 3 3 3 3 2 2 1
0 0 0 0 0 0 0 0 0 0 0 0 0 0 0 1 1 1 1 1 1 1 1 1 1 1 1 1 1 2 3 4 4 5 5 5 5 4 3 3 3 3 2 2
0 0 0 0 0 0 0 0 0 0 0 1 1 0 0 1 1 1 1 1 1 1 1 1 1 1 1 1 1 2 2 3 3 4 5 5 5 4 3 3 3 3 2 2
0 0 0 0 0 0 0 0 0 0 0 0 0 0 0 1 1 1 1 1 1 1 1 1 1 1 1 1 1 2 2 2 3 3 4 4 4 3 3 3 3 3 3 3
0 0 0 0 0 0 0 0 0 0 0 0 0 0 0 0 1 1 1 1 1 1 1 1 1 1 2 2 2 3 3 3 3 3 3 3 3 3 3 3 3 3 3 3
0 0 0 0 0 0 0 0 0 0 0 0 0 0 0 0 0 0 1 1 1 1 2 2 2 2 3 4 4 4 5 5 4 3 3 3 3 4 4 3 3 3 3 2
0 0 0 0 0 0 0 0 0 0 0 0 0 0 1 1 0 0 1 1 1 2 2 3 3 4 4 5 4 4 5 5 4 3 3 3 3 3 3 3 3 3 2 2
0 0 0 0 0 0 0 0 0 0 0 0 0 0 0 1 1 1 1 1 2 3 3 4 4 5 5 4 3 3 4 4 4 3 3 3 3 3 2 2 2 2 2 2
0 0 0 0 0 0 0 0 0 0 0 0 0 0 1 1 1 1 1 2 3 4 4 4 4 5 4 3 3 3 3 3 3 3 3 3 3 3 2 2 2 2 2 2
0 0 0 0 0 0 0 0 0 0 0 0 0 1 1 1 2 2 2 2 3 4 3 3 3 3 3 2 2 3 2 3 3 3 3 3 3 3 3 3 2 2 3 3
0 0 0 0 0 0 0 0 0 0 0 0 0 1 1 2 2 2 2 2 3 3 3 3 2 2 2 3 3 3 3 3 3 3 3 3 3 3 3 3 3 4 4 4
0 0 0 0 0 0 0 0 0 0 0 0 0 1 2 2 2 2 2 2 3 3 3 3 3 3 3 4 5 5 4 4 4 4 3 3 3 3 3 4 4 5 5 5
0 0 0 0 0 0 0 0 0 0 0 0 0 1 1 2 2 2 2 2 2 3 3 3 4 4 5 6 7 7 5 4 4 5 4 4 3 3 3 4 4 5 5 5
0 0 0 0 0 0 0 0 0 0 0 0 0 1 1 2 3 2 2 2 2 2 3 3 4 5 6 7 7 7 6 5 5 6 6 5 4 3 3 4 4 4 4 4
1 1 0 0 0 0 0 0 0 0 0 0 0 1 2 2 3 2 2 1 1 2 2 3 4 5 6 6 7 7 7 7 7 7 6 5 4 4 4 4 4 4 3 3
1 1 1 0 0 0 0 0 0 0 0 0 1 1 2 2 2 2 2 1 2 2 2 3 4 5 6 7 9 10 10 10 9 8 6 4 3 3 4 4 4 3 3 3
1 1 1 0 0 0 0 1 1 1 1 1 1 1 2 2 2 1 1 2 2 3 3 4 4 5 6 7 9 12 12 10 9 7 5 3 3 3 4 4 4 3 3 3
1 1 0 0 0 0 0 1 1 1 1 1 1 2 2 2 1 1 1 2 3 3 4 4 4 5 6 7 7 9 8 7 6 5 4 3 3 3 3 4 4 4 3 3
1 1 0 0 0 0 1 1 1 1 1 1 1 2 2 2 1 1 2 3 3 4 5 6 7 8 8 7 6 5 4 4 4 3 3 3 3 3 4 4 5 4 4 4
1 1 0 0 0 0 1 1 1 1 2 2 2 3 3 2 2 2 3 4 4 5 6 8 10 10 9 7 6 5 4 3 3 3 3 4 4 4 4 5 5 5 5 4
1 1 1 0 1 1 1 2 2 2 2 3 3 3 3 3 2 3 4 5 5 5 6 7 8 8 7 6 5 4 4 4 3 3 4 4 4 4 4 4 5 5 5 5
2 1 1 1 1 2 2 2 2 2 3 3 3 3 3 3 3 3 3 4 6 6 6 6 7 7 8 9 8 6 5 4 4 4 4 4 4 4 4 4 4 5 5 5
2 2 2 2 2 2 2 2 2 2 3 3 3 3 3 3 3 4 4 4 6 6 7 7 8 8 10 11 10 7 5 5 5 5 5 5 4 4 4 4 4 4 5 5
3 3 3 2 2 2 2 2 2 3 3 4 4 4 5 5 5 5 5 5 6 7 7 7 8 7 7 7 7 6 5 7 8 8 7 6 5 4 4 4 4 4 4 4
4 4 3 2 2 2 2 2 2 2 3 5 6 6 6 7 7 7 6 5 6 6 6 7 7 6 4 4 4 5 6 9 11 11 8 6 5 4 4 4 4 3 3 4

GEFSCGP_con_maxscp_240.txt.gz
SCP
0 0 0 0 0 0 0 0 0 0 0 1 1 1 2 3 3 2 1 1 1 1 1 2 2 2 3 5 7 9 10 11 12 11 9 8 8 7 7 7 7 7 5 4
0 0 0 0 0 0 0 0 0 0 0 1 1 1 1 2 3 2 2 1 1 1 1 2 2 2 3 5 7 9 10 10 11 10 9 8 7 7 7 8 9 9 6 4
0 0 0 0 0 0 0 0 0 0 0 1 1 1 1 2 2 2 2 2 1 2 2 2 3 3 3 5 7 8 9 10 10 9 8 7 6 7 7 10 12 11 7 4
0 0 0 0 0 0 0 0 0 0 1 1 1 1 2 2 2 2 2 2 1 2 3 3 3 3 4 4 5 7 8 9 9 9 8 7 6 6 7 10 13 11 7 5
0 0 0 0 0 0 0 0 0 0 1 1 1 1 1 2 2 2 2 2 2 2 3 3 4 4 4 4 4 6 8 9 9 8 8 7 6 5 6 9 11 10 7 6
0 0 0 0 0 0 0 0 0 0 1 1 1 1 1 2 2 2 2 2 2 3 3 3 3 4 4 4 4 6 8 8 8 7 6 6 5 5 5 7 8 8 7 7
0 0 0 0 0 0 0 0 0 0 1 0 0 1 1 2 3 3 2 2 3 3 3 3 3 4 5 5 6 7 8 8 7 6 6 5 5 5 5 5 6 6 6 7
0 0 0 0 0 0 0 0 0 1 1 0 0 1 1 2 3 3 3 3 3 3 3 3 4 5 6 7 7 8 8 7 7 6 5 5 5 5 5 5 5 5 6 6
0 0 0 0 0 0 0 0 0 0 0 0 0 1 2 2 2 2 2 2 2 3 3 4 5 6 7 7 7 9 9 8 7 6 5 5 5 5 5 5 4 5 6 6
0 0 0 0 0 0 0 0 0 0 0 0 0 1 2 2 2 2 2 2 3 4 5 6 7 6 6 6 6 8 10 9 8 6 5 5 5 5 5 5 5 5 6 6
0 0 0 0 0 0 0 0 0 1 1 0 0 1 2 3 2 2 2 4 5 5 6 6 6 5 4 4 5 7 9 9 8 6 5 4 5 5 5 5 5 5 5 5
0 0 0 0 0 0 0 0 0 1 1 1 1 2 3 4 4 4 5 6 6 6 6 6 5 5 4 4 4 6 8 10 8 6 5 5 5 5 5 5 5 5 4 4
0 0 0 0 0 0 0 0 0 1 1 0 1 2 3 4 6 6 7 6 5 5 5 5 5 5 5 5 5 6 9 10 9 7 6 6 6 6 6 6 5 5 5 5
0 0 0 0 0 0 0 0 0 0 0 0 1 2 3 4 6 6 6 5 4 4 4 4 5 6 6 7 8 8 10 11 10 8 7 8 8 8 7 6 5 5 5 6
0 0 0 0 0 0 0 0 0 0 0 0 1 2 3 4 5 4 3 3 3 3 3 3 5 6 7 9 10 11 11 11 10 9 9 10 10 9 8 6 5 5 6 6
0 0 0 0 1 1 0 0 0 1 1 1 1 2 3 4 4 3 3 3 3 3 4 4 5 6 9 11 12 14 14 12 10 10 10 10 10 9 8 6 5 5 5 5
1 1 1 0 1 1 1 1 1 1 2 2 3 4 4 4 4 3 3 4 4 5 6 6 6 6 8 11 13 14 14 12 10 10 10 9 9 8 7 7 6 5 5 5
1 1 1 0 0 1 1 1 1 2 2 3 4 4 4 4 4 4 4 4 5 6 7 7 6 6 7 9 10 11 11 10 9 9 9 8 8 7 7 7 6 5 5 5
1 1 1 1 1 1 1 1 1 2 2 3 4 4 4 4 5 6 6 6 7 8 8 8 7 7 8 8 8 8 7 7 7 8 8 7 6 6 6 6 6 5 6 6
1 1 1 1 1 1 1 1 1 2 3 3 4 4 4 5 7 9 10 9 10 12 12 11 10 9 9 9 8 7 7 6 6 6 6 5 5 5 5 5 5 6 6 7
1 1 1 1 1 1 1 1 2 3 3 4 5 6 6 6 8 11 12 11 12 15 15 13 12 11 10 8 7 7 7 7 5 5 5 4 5 6 6 6 6 7 7 7
1 1 1 1 2 3 3 3 4 5 6 6 7 8 8 8 10 12 11 10 12 16 16 16 14 12 9 7 6 6 7 7 5 5 4 5 6 6 7 6 6 6 7 7
2 2 2 2 4 5 5 5 5 6 8 8 9 9 10 10 11 11 10 10 13 15 16 16 14 10 8 7 6 6 6 6 5 5 5 6 6 6 7 6 5 5 6 6
2 2 3 4 5 6 5 5 5 6 7 8 8 10 11 12 11 10 10 10 12 14 15 15 14 11 9 8 7 6 5 5 5 5 6 7 7 7 6 5 4 4 4 6
3 3 4 5 5 5 5 5 5 5 6 7 8 9 10 10 10 9 9 9 11 12 13 14 15 13 10 9 7 6 6 5 5 5 6 7 9 9 8 5 4 3 3 4
4 4 5 6 5 4 4 5 4 5 7 8 8 9 8 8 7 7 7 9 11 12 13 14 14 12 11 9 7 6 6 5 5 5 6 7 10 11 9 6 3 2 2 2

GEFSCGP_con_maxscp_246.txt.gz
SCP
0 0 0 0 0 0 1 1 1 1 1 1 1 1 1 1 1 1 1 1 1 1 1 1 1 2 2 2 1 2 2 2 3 3 4 4 3 3 3 2 2 2 3 3
0 0 0 0 0 0 1 1 1 1 1 1 1 1 1 1 1 1 1 1 1 1 1 1 1 2 2 2 2 2 2 3 3 4 4 4 3 3 3 2 2 3 3 3
0 0 0 0 0 0 1 1 1 1 1 1 1 1 1 1 1 1 1 1 1 1 1 1 2 2 2 2 2 2 3 3 4 5 5 4 4 3 2 2 2 3 3 4
0 0 0 0 0 0 0 0 0 0 0 0 1 1 1 1 1 1 1 1 1 1 1 2 2 2 2 2 2 3 4 5 5 6 6 5 4 3 2 2 3 3 3 4
0 0 0 0 0 0 0 0 0 0 0 0 0 0 1 1 1 1 1 2 2 1 1 2 2 2 3 3 3 4 5 5 6 6 5 4 3 2 2 2 3 3 3 3
0 0 0 0 0 0 0 0 0 0 0 0 0 0 0 1 1 2 3 4 4 3 2 2 3 4 5 5 5 5 5 5 5 5 5 4 3 2 2 2 3 3 3 3
0 0 0 0 0 0 0 0 0 0 0 0 0 0 1 1 2 3 5 6 5 5 4 3 5 6 6 6 5 4 4 4 5 5 4 3 2 2 2 2 2 3 3 3
0 0 0 0 0 0 0 0 0 0 0 0 0 1 1 2 4 6 6 6 5 4 4 4 5 6 6 5 4 4 4 4 5 5 4 3 3 3 3 2 2 3 3 3
0 0 0 0 0 0 0 0 0 0 0 0 0 1 2 4 7 9 9 6 5 5 5 5 5 5 5 4 3 4 4 5 6 6 5 4 3 3 3 3 3 2 3 3
0 0 0 0 0 0 0 0 0 0 0 0 0 1 2 6 10 11 10 8 7 7 7 7 6 5 5 4 4 4 5 6 7 7 7 6 5 4 4 4 3 3 3 3
0 0 0 0 0 0 0 0 0 0 0 0 1 2 3 6 9 10 9 8 8 8 8 6 5 5 5 4 5 5 5 6 7 8 8 8 6 5 5 5 4 4 3 3
0 0 0 0 0 0 0 0 0 0 0 0 1 3 4 6 7 7 7 7 7 7 6 5 4 4 4 5 5 6 6 6 7 8 9 10 8 7 6 6 5 5 4 4
0 0 0 0 0 0 0 0 0 0 0 0 2 3 5 6 6 6 6 6 6 6 5 5 4 3 4 5 6 6 6 7 7 8 9 11 11 9 8 7 6 6 6 5
0 0 0 0 0 0 0 0 0 0 0 1 2 4 5 5 6 5 6 6 8 8 7 6 5 4 4 5 6 7 7 7 8 9 9 10 11 10 9 8 7 7 6 6
0 0 0 0 0 0 0 1 1 1 0 1 2 4 5 5 5 6 7 8 10 11 10 8 7 7 6 6 7 8 8 9 10 10 9 9 10 9 9 9 8 7 6 6
0 0 1 0 0 0 0 1 1 1 1 2 3 5 5 6 7 8 9 11 13 13 12 10 9 8 8 8 8 8 9 10 10 11 10 8 7 7 8 9 8 7 6 5
0 0 0 0 0 0 0 1 1 2 2 3 4 6 7 8 9 10 12 13 13 13 12 10 8 8 8 9 8 8 8 8 9 10 11 9 6 6 8 8 7 6 5 5
0 0 0 0 0 0 1 1 2 2 3 3 5 7 9 10 11 12 12 12 12 11 10 8 7 7 8 8 8 6 6 6 7 10 11 9 6 6 7 7 6 5 4 4
0 0 0 0 0 0 1 1 2 2 3 3 5 7 8 10 11 12 12 11 10 9 8 7 7 7 7 7 7 5 5 5 6 8 9 8 6 6 6 6 5 4 4 4
0 0 0 0 0 1 1 1 2 2 3 3 5 6 7 9 11 11 11 10 9 8 8 8 7 7 7 7 6 5 4 5 5 7 7 7 6 6 6 5 4 4 3 3
0 0 0 0 1 1 2 2 2 2 3 5 6 7 9 11 11 10 9 9 8 8 10 10 9 8 7 7 6 5 4 4 4 5 6 6 6 6 5 4 4 3 3 2
0 0 0 0 1 2 3 3 3 3 4 6 7 9 11 11 10 8 7 7 8 10 12 12 10 9 8 7 6 5 4 3 3 4 5 5 5 5 4 4 3 3 2 2
3 3 3 3 2 3 4 4 3 3 4 5 6 7 9 9 9 8 7 7 8 10 12 12 10 8 7 7 6 5 4 3 2 2 3 3 3 3 4 3 3 2 2 2
8 8 8 6 5 4 4 4 4 4 4 4 4 5 5 6 6 7 8 9 9 9 10 10 9 8 7 6 5 5 4 4 3 3 3 3 2 3 3 3 2 2 2 2
10 10 10 8 5 4 4 3 3 4 4 4 5 5 4 4 4 5 7 8 8 8 8 7 7 7 7 6 4 3 4 5 5 4 3 3 2 2 2 2 2 2 1 2
9 10 9 7 5 3 3 3 3 4 4 5 6 6 5 4 4 4 6 6 6 6 7 6 6 6 7 5 3 3 4 5 5 4 4 3 2 2 2 1 1 1 1 1

GEFSCGP_con_maxscp_252.txt.gz
SCP
0 0 0 0 0 0 0 0 0 0 0 0 1 1 0 1 1 1 1 1 1 1 1 0 1 1 1 1 1 1 1 1 1 1 1 1 1 1 1 1 2 2 2 2
0 0 0 0 0 0 0 0 0 0 0 0 0 0 0 0 1 1 1 1 1 1 1 1 1 1 1 1 1 1 1 1 1 1 1 1 1 1 1 1 2 2 2 2
0 0 0 0 0 0 0 0 0 0 0 0 0 0 0 0 0 0 1 1 1 1 1 1 1 1 1 1 1 1 1 1 1 1 1 2 2 1 1 1 2 2 2 2
0 0 0 0 0 0 0 0 0 0 0 0 0 0 0 0 0 0 0 1 1 1 1 1 1 1 1 1 1 1 1 1 1 1 1 2 2 1 1 1 1 1 2 2
0 0 0 0 0 0 0 0 0 0 0 0 0 0 0 0 0 0 0 0 1 1 2 1 1 1 1 1 1 2 2 1 1 1 1 1 1 1 1 1 1 1 1 1
0 0 0 0 0 0 0 0 0 0 0 0 0 0 0 0 0 0 0 0 0 1 1 2 1 1 1 1 2 2 2 2 1 1 1 1 1 1 1 1 1 1 1 1
0 0 0 0 0 0 0 0 0 0 0 0 0 0 0 0 0 0 0 0 1 1 1 2 2 2 2 2 2 2 2 2 2 2 1 1 1 1 1 1 1 1 1 1
0 0 0 0 0 0 0 0 0 0 0 0 0 0 0 0 0 0 0 1 1 2 3 3 3 3 3 3 3 3 2 2 2 2 2 1 1 1 1 1 1 1 2 2
0 0 0 0 0 0 0 0 0 0 0 0 0 1 1 0 1 1 2 2 3 5 6 6 6 5 5 5 4 3 3 3 2 2 2 2 1 1 1 2 2 2 2 2
0 0 0 0 0 0 0 0 0 0 0 0 0 1 1 1 2 3 4 4 6 8 9 8 7 6 5 4 4 4 3 3 3 3 3 2 2 2 2 2 2 2 2 2
0 0 0 0 0 0 0 0 0 0 0 0 0 1 2 2 2 3 4 5 7 8 8 6 5 4 4 3 4 4 4 4 4 3 3 2 2 2 2 2 2 2 2 2
0 0 0 0 0 0 0 0 0 0 0 0 1 2 3 3 3 3 4 4 5 5 5 3 3 3 3 3 4 4 4 3 3 3 3 3 3 2 2 2 2 2 3 3
0 0 0 0 0 0 0 0 0 0 0 1 2 4 5 4 3 3 4 4 4 3 2 2 2 3 4 3 3 3 3 3 3 3 3 3 3 3 2 2 2 3 3 4
0 0 0 0 0 0 0 1 0 0 0 2 3 5 5 4 4 4 4 4 3 3 2 2 3 3 3 2 2 2 3 3 3 3 4 4 4 3 2 2 2 3 4 4
0 0 0 0 0 1 1 1 1 0 1 2 4 5 5 5 5 4 4 3 3 3 3 3 4 3 2 2 2 3 3 3 3 4 5 5 4 3 2 2 2 3 4 4
0 0 0 0 1 1 1 1 1 1 1 3 4 5 5 5 5 4 4 3 3 3 3 4 4 3 2 2 3 3 3 3 3 4 5 5 4 3 2 2 2 3 4 4
0 0 0 0 0 1 1 1 1 1 2 3 4 5 5 5 4 4 3 3 2 3 4 5 4 3 3 4 4 4 4 3 3 4 5 4 4 3 3 2 2 2 3 4
0 0 0 0 0 0 0 1 1 1 1 3 4 4 5 5 4 4 4 3 3 4 4 4 4 4 5 6 6 5 4 4 3 3 4 5 4 4 3 3 2 2 2 3
0 0 0 0 0 0 0 1 1 1 1 2 4 5 5 5 5 5 5 4 4 5 4 4 5 7 8 8 7 6 5 4 3 3 4 5 5 5 4 4 3 3 2 2
0 0 0 0 0 0 1 1 1 1 1 2 4 5 6 5 4 4 4 4 4 5 5 6 8 10 10 9 8 6 5 3 3 3 4 5 6 6 5 5 4 4 3 3
0 0 0 0 0 0 1 1 1 0 1 2 4 4 5 4 4 3 3 3 4 6 6 7 10 11 11 9 8 6 4 3 2 2 3 4 5 6 6 5 5 5 4 4
0 0 0 0 0 1 1 1 1 0 1 2 3 4 4 5 4 4 3 3 4 6 6 7 9 10 9 8 8 6 4 3 2 2 2 3 4 5 5 5 5 5 5 4
0 0 1 1 2 2 2 1 1 1 2 2 3 4 5 5 5 5 4 4 4 4 5 6 7 7 7 7 6 6 5 4 3 2 2 2 2 3 4 3 4 4 5 5
1 2 3 4 3 2 2 2 2 2 2 3 4 4 4 4 5 4 4 3 3 3 3 4 5 5 4 4 4 4 5 5 4 2 1 1 1 2 2 2 3 4 4 4
3 3 4 4 4 2 2 1 2 2 3 3 4 4 3 3 4 3 3 2 2 2 2 2 4 4 3 3 3 3 4 4 3 2 1 1 1 1 2 2 2 2 3 3
3 3 4 3 3 2 1 1 1 2 3 3 4 3 3 3 3 3 2 2 2 1 2 2 3 4 3 3 3 2 2 2 2 1 1 1 1 2 2 2 2 2 2 2

GEFSCGP_con_maxscp_258.txt.gz
SCP
0 0 0 0 0 0 0 0 0 0 0 1 1 1 1 1 1 0 0 0 0 1 1 1 1 1 1 1 1 1 2 2 3 3 3 3 2 2 2 2 2 2 2 2
0 0 0 0 0 0 0 0 0 0 0 1 1 1 1 1 1 0 0 0 0 1 1 1 1 1 1 1 1 1 2 3 3 4 3 3 3 2 2 2 2 2 2 2
0 0 0 0 0 0 0 0 0 0 0 0 1 1 1 1 1 0 0 0 0 1 1 1 1 1 1 1 1 2 2 3 4 3 3 3 3 2 2 2 2 2 2 2
1 0 0 0 0 0 0 0 0 0 0 0 0 0 0 0 0 0 0 0 0 1 1 1 1 1 2 2 2 2 2 3 3 3 2 2 2 2 2 2 2 2 2 2
1 1 0 0 0 0 0 0 0 0 0 0 0 0 0 0 0 0 0 0 1 1 1 1 1 2 2 2 3 2 3 3 3 3 3 2 2 2 2 2 2 2 2 2
1 1 1 0 0 0 0 0 0 0 0 0 0 0 0 1 1 1 1 1 1 1 1 1 2 2 2 3 3 3 3 3 3 3 3 3 2 2 2 2 2 3 3 2
1 1 1 1 0 0 0 0 0 0 0 0 0 0 0 1 1 1 1 1 1 1 2 2 2 2 2 3 2 2 3 3 3 3 3 3 3 3 3 3 3 3 2 2
1 1 1 1 1 0 0 0 0 0 0 0 0 0 0 1 1 1 1 2 2 2 2 3 3 2 2 3 3 2 3 3 4 4 4 4 4 4 4 3 3 2 2 2
1 1 1 1 1 0 0 0 0 0 0 0 0 0 0 1 1 1 1 2 2 3 3 3 3 3 4 4 4 4 4 4 5 4 4 4 4 5 5 4 3 2 2 2
1 1 1 1 1 1 0 0 0 0 0 0 0 0 0 0 1 1 2 2 3 3 4 4 4 5 5 6 6 6 6 6 5 5 4 4 5 5 6 5 3 3 2 3
1 1 1 1 1 1 0 0 0 0 0 0 0 0 1 1 1 1 2 2 3 4 4 5 6 6 7 7 7 6 6 6 5 4 4 4 5 5 5 5 4 3 3 3
1 1 1 0 0 0 0 0 0 0 0 0 0 1 2 2 2 2 3 4 5 5 5 5 5 6 6 6 6 5 5 5 5 4 4 5 5 5 5 6 5 4 4 3
1 1 1 0 0 0 0 0 0 0 0 0 0 1 3 3 3 3 4 6 6 5 5 4 4 4 5 4 4 4 5 5 5 5 4 5 5 5 6 7 7 5 4 3
1 1 0 0 0 0 0 0 0 0 0 0 0 1 2 3 4 4 5 6 5 5 4 3 4 4 4 4 4 4 4 5 5 4 4 4 4 4 6 7 7 5 4 3
0 0 0 0 0 0 0 0 0 0 0 0 0 1 2 3 4 5 5 6 5 4 4 4 4 5 5 5 4 4 4 4 4 4 4 4 4 4 5 6 5 4 3 2
1 1 0 0 0 0 0 0 0 0 0 0 1 1 2 3 4 4 5 6 6 5 5 5 5 6 6 5 4 4 4 3 4 5 5 4 4 4 5 4 3 3 2 2
1 1 1 0 0 0 0 0 0 1 1 1 2 2 3 3 4 4 5 6 6 6 6 6 6 6 5 5 4 4 4 4 5 5 6 6 5 5 4 3 3 2 2 2
1 1 1 0 0 0 0 1 1 1 1 1 2 3 3 4 4 5 5 6 6 6 6 6 6 5 5 4 5 5 5 5 5 7 7 7 6 5 4 4 3 2 2 2
1 1 1 0 0 0 1 1 1 1 1 2 3 4 4 5 5 6 6 6 6 6 7 7 7 5 5 5 5 6 6 5 6 7 7 7 7 6 5 5 4 3 3 3
1 1 1 1 0 1 1 1 1 1 2 2 3 4 5 5 5 5 6 5 5 6 8 9 9 7 5 5 6 6 6 5 5 5 6 6 6 5 5 4 4 4 4 4
1 1 1 1 1 1 1 1 1 2 3 4 4 4 5 5 5 5 5 5 5 6 8 11 12 10 6 6 6 6 5 5 4 4 4 4 4 4 4 5 6 7 7 7
1 1 1 1 1 1 1 1 2 3 4 4 4 4 5 5 5 5 5 4 5 5 7 10 13 11 8 6 5 5 5 5 4 4 4 5 5 5 5 6 7 8 7 7
1 1 1 1 1 1 2 2 3 4 4 5 4 5 4 4 4 4 4 4 5 6 7 8 10 11 8 7 7 7 6 6 5 6 7 8 9 8 8 8 7 7 6 5
1 2 2 2 2 2 2 3 3 4 4 5 5 5 4 4 3 4 4 4 5 6 7 7 8 9 8 8 9 10 9 8 7 9 11 11 10 9 9 8 6 5 5 4
2 2 2 2 2 2 3 3 3 4 5 5 5 4 4 3 3 3 4 4 4 5 6 6 7 7 8 8 9 10 10 10 9 9 10 10 8 6 6 5 4 4 4 4
2 2 2 2 2 2 3 3 4 5 5 5 5 4 3 3 3 4 4 4 3 4 5 6 7 7 7 8 8 9 10 11 10 8 7 7 5 4 3 3 3 3 3 3

GEFSCGP_con_maxscp_264.txt.gz
SCP
0 0 0 0 0 0 0 0 0 0 0 0 0 0 1 1 1 1 1 1 2 2 2 2 2 2 3 4 5 6 7 8 7 6 5 5 5 5 5 5 5 5 5 5
0 0 0 0 0 0 0 0 0 0 0 0 0 0 1 1 1 1 1 1 2 2 2 2 2 2 3 4 5 6 8 9 8 7 6 5 5 5 5 5 5 5 6 6
0 0 0 0 0 0 0 0 0 0 0 1 1 1 1 1 1 1 1 1 2 2 2 2 2 2 3 4 5 6 8 9 9 7 6 5 5 5 5 6 6 6 6 6
0 0 0 0 0 0 0 0 0 0 0 0 1 1 1 1 1 1 1 2 2 3 3 2 3 3 3 4 4 6 8 9 9 7 5 5 5 4 4 6 6 6 6 5
1 1 0 0 0 0 0 0 0 0 0 0 0 1 1 1 2 1 1 2 3 3 3 3 3 4 4 4 4 6 8 10 9 7 5 4 4 3 3 5 6 7 5 4
1 1 0 0 0 0 0 0 0 0 1 0 0 1 1 1 1 2 2 3 4 4 3 4 5 6 6 5 5 6 9 12 10 8 5 4 4 3 3 5 6 6 5 4
1 1 0 0 0 0 0 0 0 1 1 1 1 1 1 1 2 2 3 4 4 4 4 6 8 8 7 5 5 8 11 13 12 9 6 5 4 4 4 4 5 4 5 5
1 1 1 0 0 0 0 0 0 1 1 1 1 1 1 2 2 3 4 4 4 4 5 7 8 8 7 7 7 8 11 12 12 10 7 5 5 4 4 4 5 5 6 7
1 1 1 0 0 1 0 0 0 0 1 1 1 1 1 2 2 3 3 3 3 5 7 8 8 8 8 8 8 8 10 11 11 9 7 6 5 4 4 5 6 7 8 7
1 1 1 1 1 1 1 0 0 0 1 1 1 1 1 2 2 2 2 3 3 5 8 8 8 7 7 8 8 8 10 11 10 8 7 7 6 5 6 7 9 10 9 8
1 1 1 1 1 1 1 1 0 1 1 1 1 1 1 2 2 2 3 3 5 7 9 9 7 6 5 6 7 8 9 10 9 8 7 7 7 6 7 8 9 11 11 10
1 1 1 1 1 1 1 1 1 1 1 1 1 1 1 2 2 3 4 6 9 12 12 10 8 6 4 5 6 7 8 9 9 7 7 7 7 7 7 8 9 11 13 12
1 1 1 1 1 1 1 1 1 1 1 1 1 1 2 2 3 4 6 11 15 16 14 12 9 7 6 6 7 7 7 8 7 7 6 6 6 6 7 8 10 14 14 13
2 1 1 1 1 1 1 1 1 1 1 1 1 2 3 3 4 5 9 15 17 15 13 11 10 9 8 8 8 8 8 8 7 6 6 6 6 6 7 8 11 15 15 12
2 2 1 1 0 0 0 0 1 1 1 1 1 3 4 5 6 8 12 15 14 12 10 10 9 9 9 8 8 9 8 7 6 6 6 6 6 6 7 8 11 14 12 9
2 2 1 1 0 0 0 0 0 1 1 1 2 4 6 7 8 10 12 12 10 9 9 10 9 9 9 8 8 9 8 7 5 5 5 6 6 6 7 8 10 10 9 8
2 2 2 1 1 0 0 0 0 1 1 2 4 6 8 9 10 11 10 8 8 8 10 11 11 10 9 9 10 10 9 7 6 6 6 6 6 6 6 7 8 8 8 8
2 2 2 1 1 1 1 1 1 1 2 3 5 7 8 9 10 10 9 8 9 11 12 13 13 11 10 10 10 10 9 8 8 8 8 7 7 6 7 7 7 8 8 8
1 2 2 1 1 1 1 1 1 2 3 4 5 6 8 10 10 9 8 9 11 13 15 15 14 12 11 10 10 9 8 7 7 7 7 7 7 8 8 8 7 7 8 8
1 2 2 1 1 1 1 1 1 2 4 4 4 6 9 10 9 9 9 10 12 14 15 16 15 13 11 10 9 8 7 7 7 7 7 7 8 9 8 8 7 7 7 7
1 1 2 1 1 2 3 2 2 3 4 5 5 6 9 9 10 11 11 11 13 15 16 16 17 15 13 12 9 8 8 9 10 10 9 8 9 9 9 9 8 9 9 8
2 2 2 2 2 3 4 4 4 4 5 6 6 7 8 10 12 12 11 11 13 15 15 15 16 17 17 16 13 11 11 11 11 10 9 8 9 9 9 9 10 10 10 11
3 2 2 3 3 4 5 5 5 5 6 7 8 8 10 13 13 12 10 9 11 13 13 12 13 15 15 16 16 15 14 13 12 10 8 8 8 8 9 10 10 11 12 12
3 3 3 3 3 4 4 5 5 5 6 7 8 11 14 15 13 11 9 8 9 10 10 11 12 14 13 13 14 14 14 13 13 12 10 8 8 8 10 10 10 11 13 14
4 3 3 3 4 4 4 4 5 5 6 6 7 11 15 14 12 11 10 9 9 9 9 9 10 12 14 14 13 13 12 12 12 13 11 10 9 9 10 11 11 11 12 13
5 4 4 3 4 4 5 5 5 5 6 6 7 12 14 12 12 12 11 10 9 9 8 8 8 9 12 17 15 13 11 10 10 11 12 11 10 9 10 11 11 11 11 11